| time (UTC) | temp F | wind direction | speed MPH | gust MPH | rain 1hr in | rain 24hr in | rain mn in | humidity % | barometer mb |
| 20260901125732 | 68 | 293 | 2.0 | 6.0 | 0.00 | 0.09 | 0.05 | 70 | 1018.3 |
| 20260901124730 | 69 | 278 | 2.0 | 6.0 | 0.00 | 0.09 | 0.05 | 70 | 1018.3 |
| 20260901123727 | 68 | 244 | 3.0 | 8.0 | 0.00 | 0.09 | 0.05 | 69 | 1018.4 |
| 20260901122724 | 68 | 266 | 4.0 | 9.0 | 0.00 | 0.09 | 0.05 | 70 | 1018.4 |
| 20260901121721 | 69 | 242 | 5.0 | 9.0 | 0.00 | 0.09 | 0.05 | 70 | 1018.4 |
| 20260901120718 | 68 | 246 | 4.0 | 9.0 | 0.00 | 0.09 | 0.05 | 75 | 1018.1 |
| 20260901115735 | 67 | 245 | 4.0 | 9.0 | 0.00 | 0.09 | 0.05 | 77 | 1018.2 |
| 20260901114732 | 67 | 261 | 3.0 | 11.0 | 0.00 | 0.09 | 0.05 | 77 | 1018.2 |
| 20260901113729 | 68 | 258 | 4.0 | 7.0 | 0.00 | 0.09 | 0.05 | 77 | 1018.1 |
| 20260901112726 | 67 | 261 | 3.0 | 8.0 | 0.00 | 0.09 | 0.05 | 80 | 1018.2 |
| 20260901111723 | 67 | 266 | 3.0 | 7.0 | 0.00 | 0.09 | 0.05 | 80 | 1018.2 |
| 20260901110720 | 66 | 247 | 2.0 | 4.0 | 0.00 | 0.09 | 0.05 | 82 | 1018.1 |
| 20260901105717 | 66 | 254 | 2.0 | 4.0 | 0.00 | 0.09 | 0.05 | 83 | 1018.4 |
| 20260901104734 | 66 | 242 | 3.0 | 7.0 | 0.00 | 0.09 | 0.05 | 86 | 1018.4 |
| 20260901103731 | 64 | 242 | 2.0 | 6.0 | 0.01 | 0.09 | 0.05 | 88 | 1018.4 |
| 20260901102728 | 63 | 251 | 2.0 | 4.0 | 0.01 | 0.21 | 0.05 | 90 | 1018.4 |
| 20260901101725 | 63 | 232 | 2.0 | 4.0 | 0.01 | 0.21 | 0.05 | 92 | 1018.4 |
| 20260901100721 | 62 | 267 | 2.0 | 4.0 | 0.01 | 0.21 | 0.05 | 92 | 1018.4 |
| 20260901095718 | 62 | 238 | 1.0 | 3.0 | 0.01 | 0.21 | 0.05 | 94 | 1018.5 |
| 20260901094715 | 62 | 235 | 2.0 | 6.0 | 0.01 | 0.21 | 0.05 | 93 | 1018.6 |
| 20260901093733 | 62 | 260 | 3.0 | 6.0 | 0.01 | 0.20 | 0.04 | 92 | 1018.5 |
| 20260901092740 | 62 | 265 | 2.0 | 4.0 | 0.03 | 0.20 | 0.04 | 93 | 1018.6 |
| 20260901091729 | 62 | 254 | 3.0 | 6.0 | 0.03 | 0.20 | 0.04 | 93 | 1018.4 |
| 20260901090724 | 62 | 266 | 3.0 | 6.0 | 0.04 | 0.20 | 0.04 | 94 | 1018.3 |
| 20260901085721 | 62 | 260 | 2.0 | 4.0 | 0.04 | 0.20 | 0.04 | 94 | 1018.2 |
| 20260901084718 | 61 | 269 | 2.0 | 6.0 | 0.04 | 0.20 | 0.04 | 94 | 1018.2 |
| 20260901083735 | 62 | 271 | 2.0 | 6.0 | 0.03 | 0.19 | 0.03 | 93 | 1018.2 |
| 20260901082737 | 62 | 257 | 2.0 | 3.0 | 0.01 | 0.17 | 0.01 | 93 | 1018.0 |
| 20260901081730 | 62 | 231 | 1.0 | 2.0 | 0.01 | 0.17 | 0.01 | 93 | 1017.9 |
| 20260901080726 | 62 | 248 | 2.0 | 4.0 | 0.00 | 0.16 | 0.00 | 93 | 1017.8 |
| 20260901075724 | 61 | 259 | 2.0 | 4.0 | 0.00 | 0.16 | 0.00 | 93 | 1017.8 |
| 20260901074720 | 61 | 260 | 1.0 | 4.0 | 0.00 | 0.16 | 0.00 | 93 | 1017.7 |
| 20260901073718 | 61 | 246 | 2.0 | 3.0 | 0.00 | 0.16 | 0.00 | 93 | 1017.7 |
| 20260901072734 | 61 | 218 | 2.0 | 7.0 | 0.00 | 0.16 | 0.00 | 94 | 1017.6 |
| 20260901071732 | 61 | 220 | 2.0 | 4.0 | 0.00 | 0.16 | 0.00 | 94 | 1017.5 |
| 20260901070728 | 61 | 257 | 2.0 | 4.0 | 0.00 | 0.16 | 0.00 | 94 | 1017.5 |
| 20260901065727 | 60 | 267 | 2.0 | 4.0 | 0.00 | 0.16 | 0.00 | 94 | 1017.4 |
| 20260901064723 | 60 | 249 | 2.0 | 4.0 | 0.00 | 0.16 | 0.00 | 95 | 1017.4 |
| 20260901063720 | 60 | 269 | 2.0 | 6.0 | 0.00 | 0.16 | 0.00 | 95 | 1017.3 |
| 20260901062722 | 60 | 259 | 2.0 | 6.0 | 0.00 | 0.16 | 0.00 | 95 | 1017.1 |
| 20260901061739 | 60 | 254 | 1.0 | 4.0 | 0.00 | 0.16 | 0.00 | 95 | 1017.0 |
| 20260901060732 | 59 | 269 | 2.0 | 4.0 | 0.00 | 0.16 | 0.00 | 95 | 1017.1 |
| 20260901055728 | 59 | 226 | 1.0 | 3.0 | 0.00 | 0.16 | 0.00 | 95 | 1017.0 |
| 20260901054725 | 59 | 203 | 0.0 | 4.0 | 0.00 | 0.16 | 0.00 | 95 | 1017.0 |
| 20260901053722 | 59 | 236 | 1.0 | 2.0 | 0.00 | 0.16 | 0.00 | 95 | 1016.9 |
| 20260901052719 | 59 | 261 | 2.0 | 7.0 | 0.00 | 0.16 | 0.00 | 96 | 1016.8 |
| 20260901051716 | 58 | 255 | 1.0 | 3.0 | 0.00 | 0.16 | 0.00 | 96 | 1016.6 |
| 20260901050733 | 58 | 273 | 0.0 | 3.0 | 0.00 | 0.16 | 0.00 | 95 | 1016.5 |
| 20260901045730 | 58 | 212 | 0.0 | 1.0 | 0.00 | 0.16 | 0.00 | 95 | 1016.4 |
| 20260901044727 | 58 | 262 | 0.0 | 2.0 | 0.00 | 0.16 | 0.00 | 95 | 1016.3 |
| 20260901043724 | 58 | 253 | 0.0 | 1.0 | 0.00 | 0.16 | 0.00 | 95 | 1016.3 |
| 20260901042721 | 58 | 273 | 0.0 | 1.0 | 0.00 | 0.16 | 0.00 | 95 | 1016.2 |
| 20260901041718 | 58 | 0.0 | 0.0 | 0.00 | 0.16 | 0.00 | 94 | 1016.2 | |
| 20260901040735 | 58 | 271 | 0.0 | 1.0 | 0.00 | 0.16 | 0.00 | 94 | 1016.2 |
| 20260901035733 | 58 | 268 | 1.0 | 2.0 | 0.00 | 0.16 | 0.00 | 94 | 1016.1 |
| 20260901034730 | 58 | 257 | 0.0 | 3.0 | 0.00 | 0.16 | 0.00 | 94 | 1016.0 |
| 20260901033727 | 59 | 265 | 1.0 | 2.0 | 0.00 | 0.16 | 0.00 | 93 | 1015.9 |
| 20260901032724 | 59 | 234 | 1.0 | 3.0 | 0.00 | 0.16 | 0.00 | 93 | 1015.7 |
| 20260901031720 | 59 | 211 | 0.0 | 2.0 | 0.00 | 0.17 | 0.00 | 93 | 1015.8 |
| 20260901030718 | 59 | 263 | 1.0 | 4.0 | 0.00 | 0.17 | 0.00 | 93 | 1015.8 |
| 20260901025735 | 59 | 258 | 1.0 | 2.0 | 0.00 | 0.17 | 0.00 | 92 | 1015.8 |
| 20260901024732 | 59 | 262 | 0.0 | 2.0 | 0.00 | 0.17 | 0.00 | 92 | 1015.8 |
| 20260901023729 | 60 | 236 | 1.0 | 3.0 | 0.00 | 0.17 | 0.00 | 92 | 1015.7 |
| 20260901022726 | 60 | 226 | 1.0 | 3.0 | 0.00 | 0.17 | 0.00 | 92 | 1015.7 |
| 20260901021724 | 60 | 257 | 1.0 | 2.0 | 0.00 | 0.17 | 0.00 | 91 | 1015.6 |
| 20260901020720 | 60 | 258 | 1.0 | 4.0 | 0.00 | 0.17 | 0.00 | 91 | 1015.6 |
| 20260901015722 | 60 | 257 | 1.0 | 2.0 | 0.00 | 0.17 | 0.00 | 91 | 1015.6 |
| 20260901014735 | 59 | 257 | 1.0 | 2.0 | 0.00 | 0.17 | 0.00 | 91 | 1015.7 |
| 20260901013732 | 59 | 254 | 1.0 | 2.0 | 0.00 | 0.17 | 0.00 | 91 | 1015.6 |
| 20260901012729 | 59 | 256 | 0.0 | 2.0 | 0.00 | 0.17 | 0.00 | 90 | 1015.6 |
| 20260901011726 | 59 | 262 | 1.0 | 2.0 | 0.00 | 0.17 | 0.00 | 90 | 1015.5 |
| 20260901010723 | 59 | 261 | 2.0 | 3.0 | 0.00 | 0.17 | 0.00 | 90 | 1015.5 |
| 20260901005720 | 59 | 265 | 1.0 | 2.0 | 0.00 | 0.17 | 0.00 | 90 | 1015.5 |
| 20260901004718 | 59 | 261 | 1.0 | 3.0 | 0.00 | 0.17 | 0.00 | 89 | 1015.4 |
| 20260901003734 | 59 | 279 | 2.0 | 3.0 | 0.00 | 0.17 | 0.00 | 89 | 1015.3 |
| 20260901002737 | 59 | 260 | 2.0 | 4.0 | 0.00 | 0.17 | 0.00 | 89 | 1015.3 |
| 20260901001729 | 59 | 264 | 1.0 | 3.0 | 0.00 | 0.17 | 0.00 | 89 | 1015.3 |
| 20260901000726 | 59 | 256 | 1.0 | 4.0 | 0.00 | 0.17 | 0.00 | 89 | 1015.3 |
| 20260831235723 | 59 | 258 | 1.0 | 2.0 | 0.00 | 0.17 | 0.00 | 89 | 1015.4 |
| 20260831234720 | 59 | 264 | 1.0 | 2.0 | 0.00 | 0.17 | 0.00 | 88 | 1015.2 |
| 20260831233718 | 60 | 265 | 0.0 | 2.0 | 0.00 | 0.17 | 0.00 | 87 | 1015.2 |
| 20260831232740 | 60 | 256 | 2.0 | 3.0 | 0.00 | 0.17 | 0.00 | 87 | 1015.2 |
| 20260831231732 | 60 | 256 | 2.0 | 4.0 | 0.00 | 0.17 | 0.00 | 87 | 1015.2 |
| 20260831230729 | 60 | 244 | 2.0 | 4.0 | 0.00 | 0.17 | 0.00 | 88 | 1015.1 |
| 20260831225726 | 60 | 249 | 1.0 | 3.0 | 0.00 | 0.17 | 0.00 | 86 | 1015.1 |
| 20260831224723 | 60 | 261 | 2.0 | 4.0 | 0.00 | 0.17 | 0.00 | 86 | 1015.0 |
| 20260831223722 | 60 | 248 | 1.0 | 3.0 | 0.00 | 0.17 | 0.00 | 86 | 1015.0 |
| 20260831222724 | 60 | 254 | 2.0 | 4.0 | 0.00 | 0.17 | 0.00 | 86 | 1015.1 |
| 20260831221735 | 60 | 255 | 2.0 | 4.0 | 0.00 | 0.17 | 0.00 | 86 | 1014.9 |
| 20260831220732 | 60 | 252 | 2.0 | 3.0 | 0.00 | 0.17 | 0.00 | 87 | 1014.9 |
| 20260831215729 | 60 | 255 | 2.0 | 4.0 | 0.00 | 0.17 | 0.17 | 87 | 1014.8 |
| 20260831214726 | 60 | 255 | 1.0 | 4.0 | 0.00 | 0.17 | 0.17 | 87 | 1014.8 |
| 20260831213724 | 60 | 259 | 2.0 | 3.0 | 0.00 | 0.17 | 0.17 | 87 | 1014.8 |
| 20260831212720 | 60 | 249 | 3.0 | 4.0 | 0.00 | 0.17 | 0.17 | 88 | 1014.7 |
| 20260831211717 | 60 | 264 | 2.0 | 4.0 | 0.00 | 0.17 | 0.17 | 88 | 1014.6 |
| 20260831210735 | 60 | 250 | 2.0 | 4.0 | 0.03 | 0.17 | 0.17 | 88 | 1014.4 |
| 20260831205732 | 60 | 256 | 2.0 | 4.0 | 0.03 | 0.17 | 0.17 | 90 | 1014.3 |
| 20260831204728 | 60 | 237 | 1.0 | 2.0 | 0.03 | 0.17 | 0.17 | 89 | 1014.2 |
| 20260831203726 | 60 | 264 | 2.0 | 4.0 | 0.03 | 0.17 | 0.17 | 88 | 1014.1 |
| 20260831202723 | 61 | 253 | 2.0 | 3.0 | 0.03 | 0.17 | 0.17 | 87 | 1014.0 |
| 20260831201720 | 62 | 279 | 2.0 | 6.0 | 0.03 | 0.17 | 0.17 | 83 | 1013.9 |
| 20260831200717 | 63 | 254 | 3.0 | 6.0 | 0.00 | 0.14 | 0.14 | 80 | 1013.7 |
| 20260831195734 | 63 | 252 | 3.0 | 7.0 | 0.00 | 0.14 | 0.14 | 79 | 1013.5 |
| 20260831194732 | 63 | 266 | 3.0 | 7.0 | 0.00 | 0.14 | 0.14 | 79 | 1013.4 |
| 20260831193728 | 63 | 247 | 3.0 | 6.0 | 0.00 | 0.14 | 0.14 | 79 | 1013.3 |
| 20260831192726 | 63 | 263 | 4.0 | 8.0 | 0.00 | 0.14 | 0.14 | 78 | 1013.2 |
| 20260831191723 | 63 | 249 | 3.0 | 6.0 | 0.00 | 0.14 | 0.14 | 78 | 1013.1 |
| 20260831190720 | 63 | 266 | 3.0 | 6.0 | 0.00 | 0.14 | 0.14 | 79 | 1012.9 |
| 20260831185717 | 63 | 253 | 3.0 | 7.0 | 0.00 | 0.14 | 0.14 | 78 | 1012.7 |
| 20260831184734 | 63 | 265 | 2.0 | 4.0 | 0.00 | 0.14 | 0.14 | 78 | 1012.6 |
| 20260831183731 | 63 | 250 | 3.0 | 6.0 | 0.00 | 0.14 | 0.14 | 77 | 1012.5 |
| 20260831182738 | 63 | 244 | 3.0 | 6.0 | 0.00 | 0.14 | 0.14 | 76 | 1012.3 |
| 20260831181730 | 64 | 241 | 3.0 | 6.0 | 0.00 | 0.14 | 0.14 | 74 | 1012.1 |
| 20260831180722 | 64 | 257 | 3.0 | 4.0 | 0.00 | 0.14 | 0.14 | 73 | 1011.8 |
| 20260831175719 | 65 | 262 | 3.0 | 7.0 | 0.00 | 0.14 | 0.14 | 72 | 1011.7 |
| 20260831174716 | 65 | 243 | 3.0 | 7.0 | 0.00 | 0.14 | 0.14 | 71 | 1011.5 |
| 20260831173733 | 65 | 248 | 5.0 | 11.0 | 0.00 | 0.14 | 0.14 | 70 | 1011.3 |
| 20260831172740 | 66 | 243 | 4.0 | 8.0 | 0.00 | 0.14 | 0.14 | 70 | 1011.3 |
| 20260831171727 | 66 | 249 | 5.0 | 11.0 | 0.00 | 0.14 | 0.14 | 69 | 1011.1 |
| 20260831170724 | 67 | 256 | 5.0 | 10.0 | 0.00 | 0.14 | 0.14 | 69 | 1010.9 |
| 20260831165721 | 67 | 251 | 5.0 | 9.0 | 0.00 | 0.14 | 0.14 | 70 | 1010.8 |
| 20260831164718 | 67 | 251 | 4.0 | 9.0 | 0.00 | 0.14 | 0.14 | 72 | 1010.8 |
| 20260831163735 | 66 | 266 | 6.0 | 13.0 | 0.00 | 0.14 | 0.14 | 72 | 1010.6 |
| 20260831162737 | 66 | 263 | 5.0 | 9.0 | 0.00 | 0.14 | 0.14 | 72 | 1010.5 |
| 20260831161729 | 67 | 232 | 4.0 | 10.0 | 0.00 | 0.14 | 0.14 | 73 | 1010.5 |
| 20260831160726 | 67 | 253 | 4.0 | 8.0 | 0.00 | 0.14 | 0.14 | 74 | 1010.3 |
| 20260831155723 | 67 | 261 | 4.0 | 7.0 | 0.00 | 0.14 | 0.14 | 74 | 1010.3 |
| 20260831154720 | 66 | 259 | 3.0 | 8.0 | 0.00 | 0.14 | 0.14 | 75 | 1010.4 |
| 20260831153717 | 66 | 267 | 4.0 | 7.0 | 0.00 | 0.14 | 0.14 | 77 | 1010.4 |
| 20260831152734 | 64 | 244 | 3.0 | 7.0 | 0.00 | 0.14 | 0.14 | 80 | 1010.3 |
| 20260831151731 | 63 | 256 | 4.0 | 7.0 | 0.00 | 0.14 | 0.14 | 80 | 1010.1 |
| 20260831150729 | 65 | 252 | 4.0 | 10.0 | 0.00 | 0.14 | 0.14 | 74 | 1010.1 |
| 20260831145725 | 66 | 255 | 4.0 | 8.0 | 0.01 | 0.14 | 0.14 | 71 | 1010.1 |
| 20260831144722 | 67 | 272 | 6.0 | 11.0 | 0.01 | 0.14 | 0.14 | 69 | 1010.0 |
| 20260831143720 | 66 | 244 | 5.0 | 8.0 | 0.01 | 0.14 | 0.14 | 71 | 1009.8 |
| 20260831142722 | 64 | 262 | 4.0 | 8.0 | 0.01 | 0.14 | 0.14 | 73 | 1009.7 |
| 20260831141734 | 62 | 258 | 4.0 | 8.0 | 0.01 | 0.14 | 0.14 | 77 | 1009.7 |
| 20260831140731 | 62 | 256 | 5.0 | 11.0 | 0.01 | 0.14 | 0.14 | 77 | 1009.7 |
| 20260831135728 | 64 | 262 | 5.0 | 11.0 | 0.00 | 0.13 | 0.13 | 79 | 1009.3 |
| 20260831134725 | 65 | 268 | 4.0 | 11.0 | 0.00 | 0.13 | 0.13 | 78 | 1009.3 |
| 20260831133722 | 65 | 265 | 4.0 | 8.0 | 0.00 | 0.13 | 0.13 | 77 | 1009.2 |
| 20260831132719 | 66 | 244 | 4.0 | 10.0 | 0.00 | 0.13 | 0.13 | 75 | 1009.2 |
| 20260831131716 | 67 | 237 | 4.0 | 13.0 | 0.00 | 0.13 | 0.13 | 72 | 1008.8 |
| 20260831130733 | 69 | 237 | 5.0 | 10.0 | 0.00 | 0.13 | 0.13 | 68 | 1008.7 |